Time,TemperatureF,DewpointF,PressureIn,WindDirection,WindDirectionDegrees,WindSpeedMPH,WindSpeedGustMPH,Humidity,HourlyPrecipIn,Conditions,Clouds,dailyrainin,SoftwareType,DateUTC
2013-02-21 00:00:00,16.4,13.5,30.33,West,272,6.0,11.0,88,0.00,,---,0.00,VWS V13.01,2013-02-21 05:00:00,
2013-02-21 00:02:00,16.4,13.5,30.33,West,273,5.0,8.0,88,0.00,,---,0.00,VWS V13.01,2013-02-21 05:02:00,
2013-02-21 00:03:00,16.3,13.4,30.33,West,273,6.0,8.0,88,0.00,,---,0.00,VWS V13.01,2013-02-21 05:03:00,
2013-02-21 00:08:00,16.3,13.4,30.32,West,271,9.0,11.0,88,0.00,,---,0.00,VWS V13.01,2013-02-21 05:08:00,
2013-02-21 00:13:00,16.3,13.4,30.32,WNW,287,9.0,12.0,88,0.00,,---,0.00,VWS V13.01,2013-02-21 05:13:00,
2013-02-21 00:19:00,16.3,13.4,30.33,West,281,8.0,12.0,88,0.00,,---,0.00,VWS V13.01,2013-02-21 05:19:00,
2013-02-21 00:24:00,16.3,13.4,30.33,West,277,9.0,13.0,88,0.00,,---,0.00,VWS V13.01,2013-02-21 05:24:00,
2013-02-21 00:29:00,16.2,13.3,30.33,West,280,9.0,13.0,88,0.00,,---,0.00,VWS V13.01,2013-02-21 05:29:00,
2013-02-21 00:34:00,16.2,13.3,30.32,West,277,7.0,10.0,88,0.00,,---,0.00,VWS V13.01,2013-02-21 05:34:00,
2013-02-21 00:39:00,16.2,13.3,30.32,WNW,284,7.0,12.0,88,0.00,,---,0.00,VWS V13.01,2013-02-21 05:39:00,
2013-02-21 00:44:00,16.2,13.3,30.33,West,276,9.0,12.0,88,0.00,,---,0.00,VWS V13.01,2013-02-21 05:44:00,
2013-02-21 00:49:00,16.2,13.3,30.33,West,279,9.0,12.0,88,0.00,,---,0.00,VWS V13.01,2013-02-21 05:49:00,
2013-02-21 00:54:00,16.2,13.3,30.32,West,280,7.0,12.0,88,0.00,,---,0.00,VWS V13.01,2013-02-21 05:54:00,
2013-02-21 01:00:00,16.2,13.3,30.32,West,277,9.0,12.0,88,0.00,,---,0.00,VWS V13.01,2013-02-21 06:00:00,
2013-02-21 01:05:00,16.1,13.4,30.32,WNW,284,10.0,10.0,89,0.00,,---,0.00,VWS V13.01,2013-02-21 06:05:00,
2013-02-21 01:10:00,16.1,13.4,30.32,West,273,9.0,12.0,89,0.00,,---,0.00,VWS V13.01,2013-02-21 06:10:00,
2013-02-21 01:15:00,16.1,13.4,30.32,West,280,9.0,12.0,89,0.00,,---,0.00,VWS V13.01,2013-02-21 06:15:00,
2013-02-21 01:20:00,16.1,13.4,30.32,West,269,8.0,12.0,89,0.00,,---,0.00,VWS V13.01,2013-02-21 06:20:00,
2013-02-21 01:25:00,16.1,13.4,30.32,West,273,7.0,12.0,89,0.00,,---,0.00,VWS V13.01,2013-02-21 06:25:00,
2013-02-21 01:30:00,16.1,13.4,30.32,West,271,9.0,9.0,89,0.00,,---,0.00,VWS V13.01,2013-02-21 06:30:00,
2013-02-21 01:35:00,16.1,13.4,30.32,West,274,7.0,9.0,89,0.00,,---,0.00,VWS V13.01,2013-02-21 06:35:00,
2013-02-21 01:40:00,16.1,13.4,30.32,West,275,7.0,11.0,89,0.00,,---,0.00,VWS V13.01,2013-02-21 06:40:00,
2013-02-21 01:45:00,16.1,13.4,30.32,West,268,5.0,11.0,89,0.00,,---,0.00,VWS V13.01,2013-02-21 06:45:00,
2013-02-21 01:50:00,16.1,13.4,30.32,West,277,7.0,11.0,89,0.00,,---,0.00,VWS V13.01,2013-02-21 06:50:00,
2013-02-21 01:55:00,16.1,13.4,30.32,WNW,282,5.0,11.0,89,0.00,,---,0.00,VWS V13.01,2013-02-21 06:55:00,
2013-02-21 02:00:00,16.1,13.4,30.32,West,279,4.0,7.0,89,0.00,,---,0.00,VWS V13.01,2013-02-21 07:00:00,
2013-02-21 02:06:00,16.1,13.7,30.32,West,277,8.0,10.0,90,0.00,,---,0.00,VWS V13.01,2013-02-21 07:06:00,
2013-02-21 02:11:00,16.1,13.4,30.32,West,277,6.0,10.0,89,0.00,,---,0.00,VWS V13.01,2013-02-21 07:11:00,
2013-02-21 02:16:00,16.1,13.7,30.32,WNW,290,9.0,11.0,90,0.00,,---,0.00,VWS V13.01,2013-02-21 07:16:00,
2013-02-21 02:21:00,16.1,13.4,30.32,West,278,9.0,11.0,89,0.00,,---,0.00,VWS V13.01,2013-02-21 07:21:00,
2013-02-21 02:26:00,16.1,13.4,30.32,West,277,5.0,11.0,89,0.00,,---,0.00,VWS V13.01,2013-02-21 07:26:00,
2013-02-21 02:31:00,16.1,13.4,30.32,West,279,7.0,9.0,89,0.00,,---,0.00,VWS V13.01,2013-02-21 07:31:00,
2013-02-21 02:36:00,16.2,13.5,30.32,West,279,7.0,9.0,89,0.00,,---,0.00,VWS V13.01,2013-02-21 07:36:00,
2013-02-21 02:41:00,16.2,13.5,30.33,WNW,284,7.0,10.0,89,0.00,,---,0.00,VWS V13.01,2013-02-21 07:41:00,
2013-02-21 02:46:00,16.2,13.5,30.33,West,279,9.0,10.0,89,0.00,,---,0.00,VWS V13.01,2013-02-21 07:46:00,
2013-02-21 02:51:00,16.3,13.6,30.33,West,270,5.0,10.0,89,0.00,,---,0.00,VWS V13.01,2013-02-21 07:51:00,
2013-02-21 02:56:00,16.3,13.6,30.33,West,280,8.0,10.0,89,0.00,,---,0.00,VWS V13.01,2013-02-21 07:56:00,
2013-02-21 03:01:00,16.4,13.5,30.33,WNW,291,8.0,13.0,88,0.00,,---,0.00,VWS V13.01,2013-02-21 08:01:00,
2013-02-21 03:06:00,16.5,13.3,30.33,WNW,300,10.0,15.0,87,0.00,,---,0.00,VWS V13.01,2013-02-21 08:06:00,
2013-02-21 03:11:00,16.6,13.4,30.33,WNW,288,9.0,15.0,87,0.00,,---,0.00,VWS V13.01,2013-02-21 08:11:00,
2013-02-21 03:16:00,16.6,13.4,30.33,WNW,286,11.0,15.0,87,0.00,,---,0.00,VWS V13.01,2013-02-21 08:16:00,
2013-02-21 03:21:00,16.5,13.3,30.33,WNW,292,8.0,15.0,87,0.00,,---,0.00,VWS V13.01,2013-02-21 08:21:00,
2013-02-21 03:26:00,16.5,13.1,30.33,NW,313,6.0,15.0,86,0.00,,---,0.00,VWS V13.01,2013-02-21 08:26:00,
2013-02-21 03:32:00,16.5,13.1,30.33,WNW,290,9.0,12.0,86,0.00,,---,0.00,VWS V13.01,2013-02-21 08:32:00,
2013-02-21 03:37:00,16.5,13.1,30.34,WNW,301,10.0,12.0,86,0.00,,---,0.00,VWS V13.01,2013-02-21 08:37:00,
2013-02-21 03:42:00,16.5,13.1,30.33,WNW,290,7.0,12.0,86,0.00,,---,0.00,VWS V13.01,2013-02-21 08:42:00,
2013-02-21 03:47:00,16.5,12.8,30.34,NW,311,8.0,13.0,85,0.00,,---,0.00,VWS V13.01,2013-02-21 08:47:00,
2013-02-21 03:52:00,16.4,12.7,30.34,NW,304,4.0,13.0,85,0.00,,---,0.00,VWS V13.01,2013-02-21 08:52:00,
2013-02-21 03:57:00,16.4,12.7,30.35,NW,307,7.0,13.0,85,0.00,,---,0.00,VWS V13.01,2013-02-21 08:57:00,
2013-02-21 04:02:00,16.4,12.7,30.35,NW,307,7.0,10.0,85,0.00,,---,0.00,VWS V13.01,2013-02-21 09:02:00,
2013-02-21 04:07:00,16.3,12.6,30.35,NW,306,5.0,10.0,85,0.00,,---,0.00,VWS V13.01,2013-02-21 09:07:00,
2013-02-21 04:12:00,16.3,12.6,30.35,NW,304,6.0,10.0,85,0.00,,---,0.00,VWS V13.01,2013-02-21 09:12:00,
2013-02-21 04:17:00,16.2,12.5,30.34,WNW,300,7.0,10.0,85,0.00,,---,0.00,VWS V13.01,2013-02-21 09:17:00,
2013-02-21 04:22:00,16.2,12.5,30.34,WNW,294,6.0,13.0,85,0.00,,---,0.00,VWS V13.01,2013-02-21 09:22:00,
2013-02-21 04:27:00,16.2,12.5,30.34,West,277,7.0,13.0,85,0.00,,---,0.00,VWS V13.01,2013-02-21 09:27:00,
2013-02-21 04:32:00,16.1,12.4,30.34,West,280,7.0,8.0,85,0.00,,---,0.00,VWS V13.01,2013-02-21 09:32:00,
2013-02-21 04:37:00,16.1,12.1,30.34,WNW,283,8.0,11.0,84,0.00,,---,0.00,VWS V13.01,2013-02-21 09:37:00,
2013-02-21 04:42:00,16.1,12.4,30.34,WNW,296,9.0,13.0,85,0.00,,---,0.00,VWS V13.01,2013-02-21 09:42:00,
2013-02-21 04:47:00,16.0,12.6,30.35,WNW,282,6.0,13.0,86,0.00,,---,0.00,VWS V13.01,2013-02-21 09:47:00,
2013-02-21 04:53:00,15.9,12.5,30.34,WNW,288,9.0,13.0,86,0.00,,---,0.00,VWS V13.01,2013-02-21 09:53:00,
2013-02-21 04:58:00,15.9,12.5,30.35,West,279,8.0,13.0,86,0.00,,---,0.00,VWS V13.01,2013-02-21 09:58:00,
2013-02-21 05:03:00,16.0,12.3,30.35,WNW,288,12.0,12.0,85,0.00,,---,0.00,VWS V13.01,2013-02-21 10:03:00,
2013-02-21 05:08:00,16.1,12.4,30.35,WNW,286,7.0,13.0,85,0.00,,---,0.00,VWS V13.01,2013-02-21 10:08:00,
2013-02-21 05:13:00,16.1,12.1,30.35,West,265,9.0,13.0,84,0.00,,---,0.00,VWS V13.01,2013-02-21 10:13:00,
2013-02-21 05:18:00,16.1,12.1,30.35,WNW,289,8.0,15.0,84,0.00,,---,0.00,VWS V13.01,2013-02-21 10:18:00,
2013-02-21 05:23:00,16.2,12.0,30.35,West,277,8.0,15.0,83,0.00,,---,0.00,VWS V13.01,2013-02-21 10:23:00,
2013-02-21 05:28:00,16.2,12.0,30.35,WNW,286,10.0,18.0,83,0.00,,---,0.00,VWS V13.01,2013-02-21 10:28:00,
2013-02-21 05:33:00,16.2,12.0,30.36,West,279,11.0,13.0,83,0.00,,---,0.00,VWS V13.01,2013-02-21 10:33:00,
2013-02-21 05:38:00,16.2,12.0,30.35,West,280,9.0,16.0,83,0.00,,---,0.00,VWS V13.01,2013-02-21 10:38:00,
2013-02-21 05:43:00,16.2,12.0,30.36,WNW,285,12.0,16.0,83,0.00,,---,0.00,VWS V13.01,2013-02-21 10:43:00,
2013-02-21 05:48:00,16.2,11.7,30.36,WNW,288,9.0,16.0,82,0.00,,---,0.00,VWS V13.01,2013-02-21 10:48:00,
2013-02-21 05:53:00,16.2,11.7,30.36,WNW,292,8.0,16.0,82,0.00,,---,0.00,VWS V13.01,2013-02-21 10:53:00,
2013-02-21 05:58:00,16.2,11.7,30.37,WNW,286,8.0,16.0,82,0.00,,---,0.00,VWS V13.01,2013-02-21 10:58:00,
2013-02-21 06:04:00,16.1,11.6,30.37,WNW,286,11.0,11.0,82,0.00,,---,0.00,VWS V13.01,2013-02-21 11:04:00,
2013-02-21 06:09:00,16.2,12.0,30.37,WNW,288,10.0,13.0,83,0.00,,---,0.00,VWS V13.01,2013-02-21 11:09:00,
2013-02-21 06:14:00,16.2,11.7,30.38,WNW,296,7.0,14.0,82,0.00,,---,0.00,VWS V13.01,2013-02-21 11:14:00,
2013-02-21 06:19:00,16.2,11.7,30.38,WNW,288,7.0,14.0,82,0.00,,---,0.00,VWS V13.01,2013-02-21 11:19:00,
2013-02-21 06:24:00,16.2,12.0,30.39,WNW,287,10.0,14.0,83,0.00,,---,0.00,VWS V13.01,2013-02-21 11:24:00,
2013-02-21 06:29:00,16.1,11.9,30.38,WNW,285,8.0,14.0,83,0.00,,---,0.00,VWS V13.01,2013-02-21 11:29:00,
2013-02-21 06:34:00,16.1,11.9,30.38,WNW,286,13.0,13.0,83,0.00,,---,0.00,VWS V13.01,2013-02-21 11:34:00,
2013-02-21 06:39:00,16.1,11.9,30.39,WNW,284,8.0,13.0,83,0.00,,---,0.00,VWS V13.01,2013-02-21 11:39:00,
2013-02-21 06:44:00,16.0,12.0,30.39,WNW,294,10.0,15.0,84,0.00,,---,0.00,VWS V13.01,2013-02-21 11:44:00,
2013-02-21 06:49:00,16.0,12.0,30.40,WNW,283,8.0,15.0,84,0.00,,---,0.00,VWS V13.01,2013-02-21 11:49:00,
2013-02-21 06:54:00,16.0,12.0,30.40,WNW,284,9.0,15.0,84,0.00,,---,0.00,VWS V13.01,2013-02-21 11:54:00,
2013-02-21 06:59:00,16.0,12.3,30.40,WNW,298,6.0,15.0,85,0.00,,---,0.00,VWS V13.01,2013-02-21 11:59:00,
2013-02-21 07:04:00,16.0,12.3,30.40,West,280,8.0,10.0,85,0.00,,---,0.00,VWS V13.01,2013-02-21 12:04:00,
2013-02-21 07:09:00,16.0,12.3,30.41,WNW,298,9.0,10.0,85,0.00,,---,0.00,VWS V13.01,2013-02-21 12:09:00,
2013-02-21 07:14:00,16.0,12.3,30.41,WNW,290,7.0,11.0,85,0.00,,---,0.00,VWS V13.01,2013-02-21 12:14:00,
2013-02-21 07:19:00,16.1,12.4,30.41,WNW,292,6.0,14.0,85,0.00,,---,0.00,VWS V13.01,2013-02-21 12:19:00,
2013-02-21 07:25:00,16.1,12.4,30.42,NW,321,13.0,14.0,85,0.00,,---,0.00,VWS V13.01,2013-02-21 12:25:00,
2013-02-21 07:30:00,16.1,12.4,30.42,WNW,283,5.0,14.0,85,0.00,,---,0.00,VWS V13.01,2013-02-21 12:30:00,
2013-02-21 07:35:00,16.1,12.4,30.42,WNW,298,8.0,12.0,85,0.00,,---,0.00,VWS V13.01,2013-02-21 12:35:00,
2013-02-21 07:40:00,16.0,12.3,30.42,West,281,8.0,12.0,85,0.00,,---,0.00,VWS V13.01,2013-02-21 12:40:00,
2013-02-21 07:45:00,16.0,12.6,30.42,WNW,297,6.0,12.0,86,0.00,,---,0.00,VWS V13.01,2013-02-21 12:45:00,
2013-02-21 07:50:00,16.0,12.6,30.43,West,279,8.0,12.0,86,0.00,,---,0.00,VWS V13.01,2013-02-21 12:50:00,
2013-02-21 07:55:00,16.1,12.7,30.43,WNW,293,7.0,12.0,86,0.00,,---,0.00,VWS V13.01,2013-02-21 12:55:00,
2013-02-21 08:00:00,16.1,12.7,30.43,WNW,284,8.0,9.0,86,0.00,,---,0.00,VWS V13.01,2013-02-21 13:00:00,
2013-02-21 08:06:00,16.0,12.6,30.43,WNW,284,9.0,13.0,86,0.00,,---,0.00,VWS V13.01,2013-02-21 13:06:00,
2013-02-21 08:11:00,16.1,12.7,30.44,WNW,298,7.0,13.0,86,0.00,,---,0.00,VWS V13.01,2013-02-21 13:11:00,
2013-02-21 08:16:00,16.1,12.7,30.44,WNW,300,9.0,14.0,86,0.00,,---,0.00,VWS V13.01,2013-02-21 13:16:00,
2013-02-21 08:21:00,16.1,12.7,30.43,WNW,294,11.0,14.0,86,0.00,,---,0.00,VWS V13.01,2013-02-21 13:21:00,
2013-02-21 08:26:00,16.2,12.5,30.44,WNW,287,10.0,16.0,85,0.00,,---,0.00,VWS V13.01,2013-02-21 13:26:00,
2013-02-21 08:31:00,16.2,12.5,30.44,WNW,298,10.0,15.0,85,0.00,,---,0.00,VWS V13.01,2013-02-21 13:31:00,
2013-02-21 08:36:00,16.3,12.6,30.45,NW,304,7.0,16.0,85,0.00,,---,0.00,VWS V13.01,2013-02-21 13:36:00,
2013-02-21 08:41:00,16.3,12.6,30.45,NW,306,10.0,16.0,85,0.00,,---,0.00,VWS V13.01,2013-02-21 13:41:00,
2013-02-21 08:46:00,16.3,12.6,30.45,West,281,11.0,18.0,85,0.00,,---,0.00,VWS V13.01,2013-02-21 13:46:00,
2013-02-21 08:51:00,16.4,12.7,30.45,WNW,298,10.0,18.0,85,0.00,,---,0.00,VWS V13.01,2013-02-21 13:51:00,
2013-02-21 08:56:00,16.4,12.7,30.45,WNW,299,8.0,18.0,85,0.00,,---,0.00,VWS V13.01,2013-02-21 13:56:00,
2013-02-21 09:01:00,16.4,12.9,30.46,West,280,11.0,11.0,86,0.00,,---,0.00,VWS V13.01,2013-02-21 14:01:00,
2013-02-21 09:07:00,16.5,12.8,30.46,NW,308,12.0,13.0,85,0.00,,---,0.00,VWS V13.01,2013-02-21 14:07:00,
2013-02-21 09:12:00,16.6,12.9,30.47,WNW,290,10.0,13.0,85,0.00,,---,0.00,VWS V13.01,2013-02-21 14:12:00,
2013-02-21 09:17:00,16.7,13.0,30.47,West,276,12.0,14.0,85,0.00,,---,0.00,VWS V13.01,2013-02-21 14:17:00,
2013-02-21 09:22:00,16.7,13.0,30.48,WNW,289,9.0,14.0,85,0.00,,---,0.00,VWS V13.01,2013-02-21 14:22:00,
2013-02-21 09:27:00,16.8,12.8,30.48,NW,310,12.0,16.0,84,0.00,,---,0.00,VWS V13.01,2013-02-21 14:27:00,
2013-02-21 09:32:00,16.8,13.1,30.49,WNW,290,12.0,14.0,85,0.00,,---,0.00,VWS V13.01,2013-02-21 14:32:00,
2013-02-21 09:37:00,16.9,12.9,30.49,WNW,300,8.0,14.0,84,0.00,,---,0.00,VWS V13.01,2013-02-21 14:37:00,
2013-02-21 09:42:00,17.0,13.0,30.49,WNW,298,12.0,18.0,84,0.00,,---,0.00,VWS V13.01,2013-02-21 14:42:00,
2013-02-21 09:47:00,16.9,12.9,30.49,WNW,287,7.0,18.0,84,0.00,,---,0.00,VWS V13.01,2013-02-21 14:47:00,
2013-02-21 09:52:00,17.0,13.3,30.49,WNW,300,11.0,18.0,85,0.00,,---,0.00,VWS V13.01,2013-02-21 14:52:00,
2013-02-21 09:58:00,17.0,13.0,30.49,WNW,300,10.0,20.0,84,0.00,,---,0.00,VWS V13.01,2013-02-21 14:58:00,
2013-02-21 10:03:00,17.0,13.3,30.49,NW,304,7.0,13.0,85,0.00,,---,0.00,VWS V13.01,2013-02-21 15:03:00,
2013-02-21 10:08:00,17.0,13.5,30.48,WNW,301,6.0,14.0,86,0.00,,---,0.00,VWS V13.01,2013-02-21 15:08:00,
2013-02-21 10:13:00,17.1,13.4,30.48,WNW,297,8.0,14.0,85,0.00,,---,0.00,VWS V13.01,2013-02-21 15:13:00,
2013-02-21 10:18:00,17.1,13.4,30.48,NNW,329,7.0,14.0,85,0.00,,---,0.00,VWS V13.01,2013-02-21 15:18:00,
2013-02-21 10:23:00,17.3,13.8,30.48,NW,317,10.0,14.0,86,0.00,,---,0.00,VWS V13.01,2013-02-21 15:23:00,
2013-02-21 10:28:00,17.3,13.3,30.48,NW,318,11.0,16.0,84,0.00,,---,0.00,VWS V13.01,2013-02-21 15:28:00,
2013-02-21 10:33:00,17.3,13.0,30.49,NNW,330,10.0,13.0,83,0.00,,---,0.00,VWS V13.01,2013-02-21 15:33:00,
2013-02-21 10:38:00,17.2,12.7,30.48,NW,312,6.0,20.0,82,0.00,,---,0.00,VWS V13.01,2013-02-21 15:38:00,
2013-02-21 10:43:00,17.2,12.9,30.49,NW,324,7.0,20.0,83,0.00,,---,0.00,VWS V13.01,2013-02-21 15:43:00,
2013-02-21 10:48:00,17.1,12.8,30.48,NNW,333,9.0,20.0,83,0.00,,---,0.00,VWS V13.01,2013-02-21 15:48:00,
2013-02-21 10:53:00,17.2,12.9,30.48,WNW,298,5.0,20.0,83,0.00,,---,0.00,VWS V13.01,2013-02-21 15:53:00,
2013-02-21 10:59:00,17.3,12.5,30.48,WNW,299,12.0,20.0,81,0.00,,---,0.00,VWS V13.01,2013-02-21 15:59:00,
2013-02-21 11:04:00,17.1,12.3,30.49,NW,309,14.0,18.0,81,0.00,,---,0.00,VWS V13.01,2013-02-21 16:04:00,
2013-02-21 11:09:00,16.8,12.0,30.49,WNW,291,14.0,21.0,81,0.00,,---,0.00,VWS V13.01,2013-02-21 16:09:00,
2013-02-21 11:14:00,16.8,12.3,30.49,NW,318,8.0,21.0,82,0.00,,---,0.00,VWS V13.01,2013-02-21 16:14:00,
2013-02-21 11:19:00,16.9,12.4,30.49,NW,323,9.0,21.0,82,0.00,,---,0.00,VWS V13.01,2013-02-21 16:19:00,
2013-02-21 11:24:00,17.0,12.2,30.49,NNE,18,0.0,21.0,81,0.00,,---,0.00,VWS V13.01,2013-02-21 16:24:00,
2013-02-21 11:29:00,17.1,12.0,30.49,NW,309,5.0,21.0,80,0.00,,---,0.00,VWS V13.01,2013-02-21 16:29:00,
2013-02-21 11:34:00,17.2,11.8,30.49,North,5,10.0,12.0,79,0.00,,---,0.00,VWS V13.01,2013-02-21 16:34:00,
2013-02-21 11:39:00,17.3,11.6,30.50,NNW,340,10.0,13.0,78,0.00,,---,0.00,VWS V13.01,2013-02-21 16:39:00,
2013-02-21 11:44:00,17.4,11.7,30.50,WNW,300,5.0,13.0,78,0.00,,---,0.00,VWS V13.01,2013-02-21 16:44:00,
2013-02-21 11:49:00,17.3,11.3,30.50,NW,321,10.0,18.0,77,0.00,,---,0.00,VWS V13.01,2013-02-21 16:49:00,
2013-02-21 11:55:00,17.1,11.4,30.50,NW,317,11.0,18.0,78,0.00,,---,0.00,VWS V13.01,2013-02-21 16:55:00,
2013-02-21 12:00:00,17.0,11.3,30.50,NW,311,13.0,18.0,78,0.00,,---,0.00,VWS V13.01,2013-02-21 17:00:00,
2013-02-21 12:05:00,17.1,11.4,30.50,NW,311,11.0,20.0,78,0.00,,---,0.00,VWS V13.01,2013-02-21 17:05:00,
2013-02-21 12:10:00,17.1,11.1,30.50,NNW,331,11.0,20.0,77,0.00,,---,0.00,VWS V13.01,2013-02-21 17:10:00,
2013-02-21 12:15:00,17.1,11.1,30.50,North,360,5.0,20.0,77,0.00,,---,0.00,VWS V13.01,2013-02-21 17:15:00,
2013-02-21 12:20:00,17.2,11.2,30.50,NNW,332,8.0,20.0,77,0.00,,---,0.00,VWS V13.01,2013-02-21 17:20:00,
2013-02-21 12:25:00,17.2,11.2,30.50,NNW,348,9.0,20.0,77,0.00,,---,0.00,VWS V13.01,2013-02-21 17:25:00,
2013-02-21 12:30:00,17.2,11.2,30.50,NW,314,7.0,7.0,77,0.00,,---,0.00,VWS V13.01,2013-02-21 17:30:00,
2013-02-21 12:35:00,17.5,11.2,30.51,NW,311,5.0,9.0,76,0.00,,---,0.00,VWS V13.01,2013-02-21 17:35:00,
2013-02-21 12:40:00,17.7,11.4,30.50,NNW,344,4.0,14.0,76,0.00,,---,0.00,VWS V13.01,2013-02-21 17:40:00,
2013-02-21 12:45:00,18.2,11.9,30.50,NW,306,3.0,14.0,76,0.00,,---,0.00,VWS V13.01,2013-02-21 17:45:00,
2013-02-21 12:50:00,18.5,12.2,30.51,North,360,0.0,14.0,76,0.00,,---,0.00,VWS V13.01,2013-02-21 17:50:00,
2013-02-21 12:56:00,18.6,12.0,30.51,North,355,6.0,14.0,75,0.00,,---,0.00,VWS V13.01,2013-02-21 17:56:00,
2013-02-21 13:01:00,18.2,11.6,30.51,NNW,348,6.0,6.0,75,0.00,,---,0.00,VWS V13.01,2013-02-21 18:01:00,
2013-02-21 13:06:00,18.3,11.7,30.51,West,280,5.0,10.0,75,0.00,,---,0.00,VWS V13.01,2013-02-21 18:06:00,
2013-02-21 13:11:00,18.4,11.8,30.50,NW,310,9.0,10.0,75,0.00,,---,0.00,VWS V13.01,2013-02-21 18:11:00,
2013-02-21 13:16:00,18.3,12.0,30.50,NNE,13,8.0,11.0,76,0.00,,---,0.00,VWS V13.01,2013-02-21 18:16:00,
2013-02-21 13:21:00,18.3,12.0,30.50,NNW,335,2.0,11.0,76,0.00,,---,0.00,VWS V13.01,2013-02-21 18:21:00,
2013-02-21 13:26:00,18.6,12.3,30.49,NNW,329,5.0,12.0,76,0.00,,---,0.00,VWS V13.01,2013-02-21 18:26:00,
2013-02-21 13:31:00,18.6,12.0,30.49,NW,306,8.0,10.0,75,0.00,,---,0.00,VWS V13.01,2013-02-21 18:31:00,
2013-02-21 13:36:00,18.5,11.9,30.49,NW,323,5.0,14.0,75,0.00,,---,0.00,VWS V13.01,2013-02-21 18:36:00,
2013-02-21 13:41:00,18.9,12.3,30.49,WNW,298,6.0,14.0,75,0.00,,---,0.00,VWS V13.01,2013-02-21 18:41:00,
2013-02-21 13:46:00,19.3,12.4,30.49,WNW,298,8.0,14.0,74,0.00,,---,0.00,VWS V13.01,2013-02-21 18:46:00,
2013-02-21 13:51:00,19.6,12.7,30.49,WNW,294,3.0,14.0,74,0.00,,---,0.00,VWS V13.01,2013-02-21 18:51:00,
2013-02-21 13:56:00,19.7,12.5,30.49,WNW,303,1.0,14.0,73,0.00,,---,0.00,VWS V13.01,2013-02-21 18:56:00,
2013-02-21 14:02:00,20.0,12.8,30.48,WNW,299,9.0,10.0,73,0.00,,---,0.00,VWS V13.01,2013-02-21 19:02:00,
2013-02-21 14:07:00,19.9,12.3,30.48,NW,317,2.0,11.0,72,0.00,,---,0.00,VWS V13.01,2013-02-21 19:07:00,
2013-02-21 14:12:00,20.4,12.8,30.48,WNW,303,6.0,11.0,72,0.00,,---,0.00,VWS V13.01,2013-02-21 19:12:00,
2013-02-21 14:17:00,20.4,12.8,30.47,NW,319,4.0,11.0,72,0.00,,---,0.00,VWS V13.01,2013-02-21 19:17:00,
2013-02-21 14:22:00,20.6,13.0,30.48,NW,321,6.0,11.0,72,0.00,,---,0.00,VWS V13.01,2013-02-21 19:22:00,
2013-02-21 14:27:00,20.9,13.0,30.49,NNW,329,0.0,11.0,71,0.00,,---,0.00,VWS V13.01,2013-02-21 19:27:00,
2013-02-21 14:32:00,21.1,13.2,30.49,NW,307,6.0,9.0,71,0.00,,---,0.00,VWS V13.01,2013-02-21 19:32:00,
2013-02-21 14:37:00,20.9,13.0,30.49,WNW,296,5.0,11.0,71,0.00,,---,0.00,VWS V13.01,2013-02-21 19:37:00,
2013-02-21 14:42:00,20.9,13.0,30.49,NW,321,6.0,11.0,71,0.00,,---,0.00,VWS V13.01,2013-02-21 19:42:00,
2013-02-21 14:47:00,21.1,13.2,30.49,NW,304,5.0,11.0,71,0.00,,---,0.00,VWS V13.01,2013-02-21 19:47:00,
2013-02-21 14:52:00,21.0,13.1,30.49,WNW,302,5.0,11.0,71,0.00,,---,0.00,VWS V13.01,2013-02-21 19:52:00,
2013-02-21 14:57:00,21.2,13.3,30.50,WNW,302,0.0,11.0,71,0.00,,---,0.00,VWS V13.01,2013-02-21 19:57:00,
2013-02-21 15:04:00,21.5,13.2,30.50,NW,315,7.0,9.0,70,0.00,,---,0.00,VWS V13.01,2013-02-21 20:04:00,
2013-02-21 15:09:00,21.5,13.2,30.50,NNW,344,8.0,11.0,70,0.00,,---,0.00,VWS V13.01,2013-02-21 20:09:00,
2013-02-21 15:14:00,21.1,12.5,30.51,WNW,299,8.0,11.0,69,0.00,,---,0.00,VWS V13.01,2013-02-21 20:14:00,
2013-02-21 15:19:00,20.8,12.9,30.50,WNW,292,6.0,11.0,71,0.00,,---,0.00,VWS V13.01,2013-02-21 20:19:00,
2013-02-21 15:24:00,21.1,12.9,30.50,WNW,294,7.0,11.0,70,0.00,,---,0.00,VWS V13.01,2013-02-21 20:24:00,
2013-02-21 15:29:00,21.5,13.2,30.50,NW,314,4.0,11.0,70,0.00,,---,0.00,VWS V13.01,2013-02-21 20:29:00,
2013-02-21 15:34:00,21.9,13.3,30.50,NNE,27,2.0,8.0,69,0.00,,---,0.00,VWS V13.01,2013-02-21 20:34:00,
2013-02-21 15:39:00,22.1,13.2,30.50,West,277,7.0,8.0,68,0.00,,---,0.00,VWS V13.01,2013-02-21 20:39:00,
2013-02-21 15:44:00,21.9,13.3,30.51,WNW,295,5.0,11.0,69,0.00,,---,0.00,VWS V13.01,2013-02-21 20:44:00,
2013-02-21 15:50:00,21.9,13.3,30.51,WNW,302,7.0,11.0,69,0.00,,---,0.00,VWS V13.01,2013-02-21 20:50:00,
2013-02-21 15:55:00,22.0,13.4,30.51,NW,314,5.0,11.0,69,0.00,,---,0.00,VWS V13.01,2013-02-21 20:55:00,
2013-02-21 16:00:00,21.9,13.0,30.51,NW,304,4.0,11.0,68,0.00,,---,0.00,VWS V13.01,2013-02-21 21:00:00,
2013-02-21 16:05:00,21.8,13.2,30.51,WNW,303,5.0,10.0,69,0.00,,---,0.00,VWS V13.01,2013-02-21 21:05:00,
2013-02-21 16:10:00,21.7,13.1,30.50,NW,315,9.0,11.0,69,0.00,,---,0.00,VWS V13.01,2013-02-21 21:10:00,
2013-02-21 16:15:00,21.8,13.2,30.50,NW,316,0.0,11.0,69,0.00,,---,0.00,VWS V13.01,2013-02-21 21:15:00,
2013-02-21 16:20:00,22.1,13.2,30.50,NW,313,5.0,11.0,68,0.00,,---,0.00,VWS V13.01,2013-02-21 21:20:00,
2013-02-21 16:25:00,22.2,13.3,30.49,NW,322,0.0,11.0,68,0.00,,---,0.00,VWS V13.01,2013-02-21 21:25:00,
2013-02-21 16:30:00,22.4,13.4,30.49,NW,323,0.0,0.0,68,0.00,,---,0.00,VWS V13.01,2013-02-21 21:30:00,
2013-02-21 16:35:00,22.5,13.6,30.49,NW,326,0.0,5.0,68,0.00,,---,0.00,VWS V13.01,2013-02-21 21:35:00,
2013-02-21 16:40:00,22.3,13.0,30.49,NE,36,6.0,7.0,67,0.00,,---,0.00,VWS V13.01,2013-02-21 21:40:00,
2013-02-21 16:45:00,22.0,13.1,30.49,NNE,17,4.0,8.0,68,0.00,,---,0.00,VWS V13.01,2013-02-21 21:45:00,
2013-02-21 16:50:00,22.1,13.2,30.49,NNE,19,0.0,8.0,68,0.00,,---,0.00,VWS V13.01,2013-02-21 21:50:00,
2013-02-21 16:55:00,22.0,13.1,30.49,NNE,21,1.0,8.0,68,0.00,,---,0.00,VWS V13.01,2013-02-21 21:55:00,
2013-02-21 17:01:00,21.7,12.8,30.48,NNE,25,4.0,6.0,68,0.00,,---,0.00,VWS V13.01,2013-02-21 22:01:00,
2013-02-21 17:06:00,21.6,12.7,30.48,NNE,26,0.0,6.0,68,0.00,,---,0.00,VWS V13.01,2013-02-21 22:06:00,
2013-02-21 17:11:00,21.6,12.7,30.47,NNE,26,2.0,6.0,68,0.00,,---,0.00,VWS V13.01,2013-02-21 22:11:00,
2013-02-21 17:16:00,21.7,12.8,30.47,North,11,0.0,7.0,68,0.00,,---,0.00,VWS V13.01,2013-02-21 22:16:00,
2013-02-21 17:21:00,21.6,12.7,30.49,North,11,0.0,7.0,68,0.00,,---,0.00,VWS V13.01,2013-02-21 22:21:00,
2013-02-21 17:26:00,21.6,12.7,30.49,North,11,0.0,7.0,68,0.00,,---,0.00,VWS V13.01,2013-02-21 22:26:00,
2013-02-21 17:31:00,21.7,12.8,30.49,North,11,0.0,0.0,68,0.00,,---,0.00,VWS V13.01,2013-02-21 22:31:00,
2013-02-21 17:36:00,21.0,12.4,30.50,NNW,346,2.0,5.0,69,0.00,,---,0.00,VWS V13.01,2013-02-21 22:36:00,
2013-02-21 17:41:00,19.7,11.8,30.51,WNW,284,5.0,9.0,71,0.00,,---,0.00,VWS V13.01,2013-02-21 22:41:00,
2013-02-21 17:46:00,19.1,11.9,30.52,WNW,293,5.0,9.0,73,0.00,,---,0.00,VWS V13.01,2013-02-21 22:46:00,
2013-02-21 17:51:00,18.9,11.7,30.52,WNW,294,7.0,9.0,73,0.00,,---,0.00,VWS V13.01,2013-02-21 22:51:00,
2013-02-21 17:56:00,18.8,11.6,30.53,WNW,298,5.0,9.0,73,0.00,,---,0.00,VWS V13.01,2013-02-21 22:56:00,
2013-02-21 18:01:00,18.4,11.5,30.54,WNW,298,2.0,4.0,74,0.00,,---,0.00,VWS V13.01,2013-02-21 23:01:00,
2013-02-21 18:06:00,18.2,11.9,30.55,WNW,298,0.0,4.0,76,0.00,,---,0.00,VWS V13.01,2013-02-21 23:06:00,
2013-02-21 18:11:00,17.8,12.1,30.56,WNW,298,0.0,4.0,78,0.00,,---,0.00,VWS V13.01,2013-02-21 23:11:00,
2013-02-21 18:17:00,17.5,11.8,30.57,WNW,298,0.0,4.0,78,0.00,,---,0.00,VWS V13.01,2013-02-21 23:17:00,
2013-02-21 18:22:00,17.0,11.6,30.58,WNW,298,0.0,4.0,79,0.00,,---,0.00,VWS V13.01,2013-02-21 23:22:00,
2013-02-21 18:27:00,17.0,11.9,30.58,WNW,298,0.0,4.0,80,0.00,,---,0.00,VWS V13.01,2013-02-21 23:27:00,
2013-02-21 18:32:00,17.0,11.9,30.58,WNW,298,0.0,2.0,80,0.00,,---,0.00,VWS V13.01,2013-02-21 23:32:00,
2013-02-21 18:37:00,17.0,11.9,30.58,WNW,298,0.0,2.0,80,0.00,,---,0.00,VWS V13.01,2013-02-21 23:37:00,
2013-02-21 18:42:00,17.2,12.1,30.59,WNW,298,0.0,2.0,80,0.00,,---,0.00,VWS V13.01,2013-02-21 23:42:00,
2013-02-21 18:47:00,17.1,12.0,30.59,WNW,298,0.0,2.0,80,0.00,,---,0.00,VWS V13.01,2013-02-21 23:47:00,
2013-02-21 18:52:00,17.1,11.7,30.60,WNW,298,0.0,2.0,79,0.00,,---,0.00,VWS V13.01,2013-02-21 23:52:00,
2013-02-21 18:57:00,17.2,11.5,30.59,WNW,298,0.0,5.0,78,0.00,,---,0.00,VWS V13.01,2013-02-21 23:57:00,
2013-02-21 19:02:00,16.9,11.5,30.59,WNW,298,1.0,4.0,79,0.00,,---,0.00,VWS V13.01,2013-02-22 00:02:00,
2013-02-21 19:07:00,17.0,11.9,30.59,WNW,298,0.0,5.0,80,0.00,,---,0.00,VWS V13.01,2013-02-22 00:07:00,
2013-02-21 19:12:00,17.0,11.9,30.59,WNW,298,0.0,5.0,80,0.00,,---,0.00,VWS V13.01,2013-02-22 00:12:00,
2013-02-21 19:17:00,16.3,10.4,30.59,WNW,298,0.0,5.0,77,0.00,,---,0.00,VWS V13.01,2013-02-22 00:17:00,
2013-02-21 19:22:00,15.0,10.0,30.59,WNW,298,0.0,5.0,80,0.00,,---,0.00,VWS V13.01,2013-02-22 00:22:00,
2013-02-21 19:28:00,14.3,9.6,30.58,WNW,298,0.0,5.0,81,0.00,,---,0.00,VWS V13.01,2013-02-22 00:28:00,
2013-02-21 19:33:00,14.2,9.4,30.58,WNW,298,0.0,0.0,81,0.00,,---,0.00,VWS V13.01,2013-02-22 00:33:00,
2013-02-21 19:38:00,13.3,8.8,30.59,WNW,298,0.0,0.0,82,0.00,,---,0.00,VWS V13.01,2013-02-22 00:38:00,
2013-02-21 19:43:00,13.2,9.0,30.58,WNW,298,0.0,0.0,83,0.00,,---,0.00,VWS V13.01,2013-02-22 00:43:00,
2013-02-21 19:48:00,13.4,9.5,30.58,WNW,298,0.0,0.0,84,0.00,,---,0.00,VWS V13.01,2013-02-22 00:48:00,
2013-02-21 19:53:00,13.3,9.1,30.58,WNW,298,0.0,1.0,83,0.00,,---,0.00,VWS V13.01,2013-02-22 00:53:00,
2013-02-21 19:58:00,12.8,8.6,30.58,WNW,298,0.0,1.0,83,0.00,,---,0.00,VWS V13.01,2013-02-22 00:58:00,
2013-02-21 20:03:00,12.7,8.8,30.58,WNW,298,0.0,0.0,84,0.00,,---,0.00,VWS V13.01,2013-02-22 01:03:00,
2013-02-21 20:08:00,12.3,8.4,30.57,WNW,298,0.0,0.0,84,0.00,,---,0.00,VWS V13.01,2013-02-22 01:08:00,
2013-02-21 20:13:00,11.5,7.6,30.57,WNW,298,0.0,0.0,84,0.00,,---,0.00,VWS V13.01,2013-02-22 01:13:00,
2013-02-21 20:18:00,11.2,7.6,30.57,WNW,298,0.0,1.0,85,0.00,,---,0.00,VWS V13.01,2013-02-22 01:18:00,
2013-02-21 20:24:00,11.3,7.9,30.57,WNW,298,0.0,1.0,86,0.00,,---,0.00,VWS V13.01,2013-02-22 01:24:00,
2013-02-21 20:29:00,11.2,7.8,30.57,WNW,298,0.0,1.0,86,0.00,,---,0.00,VWS V13.01,2013-02-22 01:29:00,
2013-02-21 20:34:00,10.9,7.5,30.57,WNW,298,0.0,0.0,86,0.00,,---,0.00,VWS V13.01,2013-02-22 01:34:00,
2013-02-21 20:39:00,11.5,8.4,30.58,WNW,298,0.0,0.0,87,0.00,,---,0.00,VWS V13.01,2013-02-22 01:39:00,
2013-02-21 20:44:00,11.7,8.6,30.58,WNW,298,0.0,0.0,87,0.00,,---,0.00,VWS V13.01,2013-02-22 01:44:00,
2013-02-21 20:49:00,11.5,8.4,30.58,WNW,298,0.0,0.0,87,0.00,,---,0.00,VWS V13.01,2013-02-22 01:49:00,
2013-02-21 20:54:00,10.8,7.7,30.58,WNW,298,0.0,2.0,87,0.00,,---,0.00,VWS V13.01,2013-02-22 01:54:00,
2013-02-21 20:59:00,9.4,6.1,30.58,WNW,298,0.0,2.0,86,0.00,,---,0.00,VWS V13.01,2013-02-22 01:59:00,
2013-02-21 21:04:00,8.9,5.8,30.58,WNW,298,0.0,0.0,87,0.00,,---,0.00,VWS V13.01,2013-02-22 02:04:00,
2013-02-21 21:09:00,8.8,6.0,30.58,WNW,298,0.0,0.0,88,0.00,,---,0.00,VWS V13.01,2013-02-22 02:09:00,
2013-02-21 21:14:00,8.8,6.0,30.59,WNW,298,0.0,0.0,88,0.00,,---,0.00,VWS V13.01,2013-02-22 02:14:00,
2013-02-21 21:19:00,9.3,6.7,30.59,WNW,298,0.0,0.0,89,0.00,,---,0.00,VWS V13.01,2013-02-22 02:19:00,
2013-02-21 21:25:00,9.9,7.6,30.58,WNW,298,0.0,0.0,90,0.00,,---,0.00,VWS V13.01,2013-02-22 02:25:00,
2013-02-21 21:30:00,10.3,8.0,30.58,WNW,298,0.0,0.0,90,0.00,,---,0.00,VWS V13.01,2013-02-22 02:30:00,
2013-02-21 21:35:00,9.5,6.9,30.59,WNW,298,0.0,0.0,89,0.00,,---,0.00,VWS V13.01,2013-02-22 02:35:00,
2013-02-21 21:40:00,8.9,6.3,30.58,WNW,298,0.0,1.0,89,0.00,,---,0.00,VWS V13.01,2013-02-22 02:40:00,
2013-02-21 21:45:00,9.0,6.4,30.58,WNW,298,0.0,1.0,89,0.00,,---,0.00,VWS V13.01,2013-02-22 02:45:00,
2013-02-21 21:50:00,9.4,7.1,30.58,WNW,298,0.0,1.0,90,0.00,,---,0.00,VWS V13.01,2013-02-22 02:50:00,
2013-02-21 21:55:00,9.9,7.6,30.57,WNW,298,0.0,1.0,90,0.00,,---,0.00,VWS V13.01,2013-02-22 02:55:00,
2013-02-21 22:00:00,10.0,7.7,30.57,WNW,298,0.0,1.0,90,0.00,,---,0.00,VWS V13.01,2013-02-22 03:00:00,
2013-02-21 22:06:00,10.0,7.7,30.57,WNW,298,0.0,1.0,90,0.00,,---,0.00,VWS V13.01,2013-02-22 03:06:00,
2013-02-21 22:11:00,8.9,6.3,30.57,WNW,298,0.0,1.0,89,0.00,,---,0.00,VWS V13.01,2013-02-22 03:11:00,
2013-02-21 22:16:00,8.9,6.3,30.56,WNW,298,0.0,1.0,89,0.00,,---,0.00,VWS V13.01,2013-02-22 03:16:00,
2013-02-21 22:21:00,8.9,6.6,30.56,WNW,298,0.0,1.0,90,0.00,,---,0.00,VWS V13.01,2013-02-22 03:21:00,
2013-02-21 22:26:00,8.9,6.6,30.56,WNW,298,0.0,1.0,90,0.00,,---,0.00,VWS V13.01,2013-02-22 03:26:00,
2013-02-21 22:31:00,9.1,6.8,30.56,WNW,298,0.0,0.0,90,0.00,,---,0.00,VWS V13.01,2013-02-22 03:31:00,
2013-02-21 22:36:00,9.6,7.5,30.56,WNW,298,0.0,1.0,91,0.00,,---,0.00,VWS V13.01,2013-02-22 03:36:00,
2013-02-21 22:41:00,10.2,8.1,30.55,WNW,298,0.0,1.0,91,0.00,,---,0.00,VWS V13.01,2013-02-22 03:41:00,
2013-02-21 22:46:00,10.8,8.7,30.56,WNW,298,0.0,1.0,91,0.00,,---,0.00,VWS V13.01,2013-02-22 03:46:00,
2013-02-21 22:51:00,11.4,9.3,30.56,WNW,298,0.0,1.0,91,0.00,,---,0.00,VWS V13.01,2013-02-22 03:51:00,
2013-02-21 22:56:00,11.8,9.7,30.56,WNW,298,0.0,1.0,91,0.00,,---,0.00,VWS V13.01,2013-02-22 03:56:00,
2013-02-21 23:01:00,12.1,10.0,30.56,WNW,298,0.0,0.0,91,0.00,,---,0.00,VWS V13.01,2013-02-22 04:01:00,
2013-02-21 23:07:00,12.4,10.3,30.57,WNW,298,0.0,0.0,91,0.00,,---,0.00,VWS V13.01,2013-02-22 04:07:00,
2013-02-21 23:12:00,12.7,10.6,30.57,WNW,298,0.0,0.0,91,0.00,,---,0.00,VWS V13.01,2013-02-22 04:12:00,
2013-02-21 23:17:00,13.0,10.9,30.57,WNW,298,0.0,0.0,91,0.00,,---,0.00,VWS V13.01,2013-02-22 04:17:00,
2013-02-21 23:22:00,13.2,11.1,30.57,WNW,298,0.0,1.0,91,0.00,,---,0.00,VWS V13.01,2013-02-22 04:22:00,
2013-02-21 23:27:00,13.0,10.6,30.57,WNW,298,5.0,5.0,90,0.00,,---,0.00,VWS V13.01,2013-02-22 04:27:00,
2013-02-21 23:32:00,13.0,10.6,30.57,WNW,298,2.0,3.0,90,0.00,,---,0.00,VWS V13.01,2013-02-22 04:32:00,
2013-02-21 23:38:00,13.1,10.7,30.57,WNW,298,4.0,4.0,90,0.00,,---,0.00,VWS V13.01,2013-02-22 04:38:00,
2013-02-21 23:43:00,13.4,11.0,30.56,WNW,298,1.0,4.0,90,0.00,,---,0.00,VWS V13.01,2013-02-22 04:43:00,
2013-02-21 23:48:00,13.5,11.1,30.56,WNW,298,0.0,4.0,90,0.00,,---,0.00,VWS V13.01,2013-02-22 04:48:00,
2013-02-21 23:53:00,13.8,11.4,30.56,WNW,298,1.0,4.0,90,0.00,,---,0.00,VWS V13.01,2013-02-22 04:53:00,
2013-02-21 23:58:00,13.9,11.5,30.57,WNW,298,0.0,4.0,90,0.00,,---,0.00,VWS V13.01,2013-02-22 04:58:00,